Volver al catálogo

ATLAS 5 CENTAUR DEB

ActivoHEO
NORAD 44040·DEBRIS·🇺🇸 United States

Lanzado Sep 17, 2014 desde Cape Canaveral Space Force Station

Loading…

Próximos Pases (próximas 24 horas)

TLE

EnvejeciendoSource: Space-Track

Época: Sep 4, 2026, 20:02 UTC

1 44040U 14055CA  26247.83525791 -.00000147  00000-0  00000-0 0  9991
2 44040  20.4641 127.7447 4738559 194.8841 144.0281  1.88071461 53351

Sigue ATLAS 5 CENTAUR DEB en tiempo real con AllMySat

Download on the App Store